Home   Weather   Landsberg am Lech   Past weeks

Flag for Germany Past Weather in Landsberg am Lech, Bavaria, Germany — Yesterday and Last 2 Weeks

Now
7 °F

Ice fog.


Feels Like: 7 °F
Forecast: 4 / 24 °F
Wind: 2 mph from Southeast

Location: Landsberg

Current Time: Jan 22, 2017 at 12:50:47 am

Latest Report: Jan 21, 2017 at 11:20 pm


Visibility: 2 mi

Pressure: 30.27 "Hg (27.99 "Hg at 593m altitude)

Humidity: 92%

Dew Point: 5 °F

Location of Landsberg am LechLocation

Past Weather in Landsberg am Lech — Graph

°F

Landsberg am Lech Temperature Yesterday

Maximum temperature yesterday: 23 °F (at 2:20 pm)
Minimum temperature yesterday: 5 °F (at 3:20 am)
Average temperature yesterday: 12 °F

High & Low Weather Summary for the Past Weeks

 TemperatureHumidityPressure
High39 °F (Jan 12, 11:20 am)100% (Jan 8, 7:20 am)30.57 "Hg (Jan 8, 7:20 am)
Low-4 °F (Jan 7, 4:20 am)54% (Jan 7, 8:20 pm)29.39 "Hg (Jan 13, 1:20 am)
Average24 °F86%30.12 "Hg
* Reported Jan 6 11:20 pm — Jan 21 11:20 pm, Landsberg am Lech, Weather by CustomWeather, © 2017

Note: Actual official high and low records may vary slightly from our data, if they occured in-between our weather recording intervals... More about our weather records

Advertising

Landsberg am Lech Weather History for the Previous 24 Hours

Scroll right to see more
 ConditionsComfort  
Time TempWeatherWind HumidityBarometerVisibility
11:20 pm
Sat, Jan 21
7 °FIce fog.2 mph92%30.27 "Hg2 mi
10:20 pm9 °FIce fog.1 mph92%30.27 "Hg2 mi
9:20 pm10 °FIce fog.1 mph92%30.27 "Hg2 mi
8:20 pm12 °FIce fog.1 mph92%30.30 "Hg1 mi
7:20 pm14 °FIce fog.1 mph92%30.30 "Hg2 mi
6:20 pm14 °FIce fog.6 mph92%30.30 "Hg2 mi
5:20 pm18 °FIce fog.2 mph93%30.30 "Hg2 mi
4:20 pm21 °FIce fog.3 mph80%30.30 "Hg2 mi
3:20 pm23 °FIce fog.5 mph80%30.30 "Hg2 mi
2:20 pm23 °FIce fog.2 mph86%30.30 "Hg2 mi
1:20 pm18 °FIce fog.3 mph93%30.30 "Hg2 mi
12:20 pm16 °FIce fog.5 mph93%30.33 "Hg2 mi
11:20 am16 °FIce fog.1 mph86%30.36 "Hg2 mi
10:38 am12 °FIce fog.2 mph92%30.36 "Hg2 mi
10:06 am10 °FIce fog.2 mph85%30.36 "Hg1 mi
9:20 am10 °FLight snow. Ice fog.2 mph92%30.36 "Hg0 mi
8:20 am10 °FLight snow. Ice fog.1 mph85%30.36 "Hg0 mi
7:20 am10 °FIce fog.1 mph92%30.33 "Hg0 mi
6:56 am9 °FIce fog.1 mph92%30.33 "Hg0 mi
6:20 am7 °FIce fog.2 mph92%30.33 "Hg3 mi
5:20 am5 °FIce fog.1 mph85%30.33 "Hg3 mi
4:20 am5 °FIce fog.2 mph92%30.33 "Hg3 mi
3:20 am5 °FIce fog.3 mph92%30.33 "Hg3 mi
2:20 am7 °FIce fog.3 mph85%30.36 "Hg3 mi
1:20 am7 °FIce fog.3 mph92%30.36 "Hg2 mi
12:20 am7 °FIce fog.2 mph85%30.36 "Hg2 mi
Weather by CustomWeather, © 2017

See weather overviewHow to use our weather pages